Regional Weather Roundup
Issued by NWS

Home | Current Version | Previous Version | Graphics & Text | Print | Product List | Glossary On
Versions: 1 2 3 4 5 6 7 8 9 10 11 12 13 14 15 16 17 18 19 20 21 22 23 24 25 26 27 28 29 30 31 32 33 34 35 36 37 38 39 40 41 42 43 44 45 46 47 48 49 50
000
ASUS45 KTFX 211310
RWRMT
MONTANA REGIONAL WEATHER ROUNDUP
NATIONAL WEATHER SERVICE GREAT FALLS MT
600 AM MST WED FEB 21 2018

NOTE: "FAIR" INDICATES FEW OR NO CLOUDS BELOW 12000 FEET WITH NO
SIGNIFICANT WEATHER AND/OR OBSTRUCTIONS TO VISIBILITY.

MTZ001>007-043-211400-
WEST OF THE DIVIDE

CITY           SKY/WX    TMP DP  RH WIND       PRES   REMARKS
KALISPELL      CLOUDY    -8 -11  86 CALM      30.19F
MISSOULA       CLOUDY     5   1  83 SW3       30.18F
BUTTE          CLOUDY   -11 -17  75 E5        30.00S
MULLAN PASS    FAIR      -2  -6  83 S5        29.90F
ANACONDA         N/A      0  -6  78 CALM      30.04R
DEER LODGE       N/A     -2  -8  78 CALM      30.09S
HAMILTON         N/A      3  -2  78 MISG      30.15S
RONAN            N/A     -6  -9  84 CALM      30.20F
$$

MTZ008-052>055-211400-
SOUTHWEST MONTANA

CITY           SKY/WX    TMP DP  RH WIND       PRES   REMARKS
BOZEMAN        MOCLDY    -6 -12  75 CALM      30.09S
DILLON         FAIR      -5  -7  91 S6        30.02S WCI -18
ENNIS          CLOUDY     5  -4  66 S13       30.06F WCI -12
W YELLOWSTONE  CLOUDY   -13 -18  77 CALM      29.98S HAZE
THREE FORKS      N/A     -5 -12  71 CALM      30.08S
$$

MTZ009-010-012-014-046-048-049-054-211400-
EAST SLOPES AND CENTRAL MONTANA

CITY           SKY/WX    TMP DP  RH WIND       PRES   REMARKS
CUT BANK       FAIR     -10 -14  82 CALM      30.03F
GREAT FALLS    FAIR      -9 -13  83 SW8       30.08F WCI -25
HELENA         FAIR      -6  -9  86 S5        30.14S
AUGUSTA        FAIR      -4 -13  65 SW12      30.00F WCI -23
CHOTEAU          N/A     -4 -13  65 SW9       30.06F WCI -20
CONRAD           N/A    -16 -24  66 S6        30.07  WCI -30
RAYNESFORD     FAIR      -5 -12  72 CALM      30.06F
WHITE SULPHUR    N/A     -8 -11  84 NW3       30.01S HAZE
$$

MTZ011-013-016-021-045-047-050-051-211400-
NORTH CENTRAL MONTANA

CITY           SKY/WX    TMP DP  RH WIND       PRES   REMARKS
HAVRE          FAIR     -13 -18  78 W5        30.18F
LEWISTOWN      FAIR      -9 -13  83 VRB3      30.05F
N BAR RANCH    CLOUDY    -4 -15  59 CALM      30.04F
CHINOOK          N/A    -24 -27  83 CALM      30.22F
GEYSER         FAIR      -3 -11  66 SW8       30.05F WCI -17
STANFORD       FAIR       0 -12  57 W3        30.03S
$$

MTZ017>020-022>027-061-062-211400-
NORTHEAST MONTANA

CITY           SKY/WX    TMP DP  RH WIND       PRES   REMARKS
GLASGOW        FAIR     -16 -21  78 E5        30.25S
GLENDIVE       FAIR     -16 -22  74 SW6       30.28S WCI -31
JORDAN           N/A    -23 -27  82 CALM      30.21F
MALTA          PTCLDY   -29 -36  68 SW3       30.24F
SIDNEY         FAIR     -17 -22  78 CALM      30.31S
WOLF POINT     FAIR     -19 -24  77 SW5       30.31R
PLENTYWOOD       N/A     -8 -13  77 CALM      30.24R
POPLAR           N/A    -17 -20  83 W5        30.32R
$$

MTZ028>42-056>058-211400-
SOUTHCENTRAL AND SOUTHEAST MONTANA

CITY           SKY/WX    TMP DP  RH WIND       PRES   REMARKS
BAKER          FAIR     -18 -21  87 N5        30.25R
BILLINGS       MOCLDY    -4 -10  75 SW10      30.14S WCI -21
LIVINGSTON     MOCLDY     3  -6  66 NW16      30.02F WCI -16
MILES CITY     FAIR     -16 -19  87 S5        30.26F
BIG TIMBER     CLOUDY    -9 -13  84 CALM      30.09R
FORSYTH          N/A    -17 -20  83 CALM      30.24F
LAUREL           N/A     -4 -11  71 CALM      30.16
$$

REGIONAL REPORTS...DAKOTAS

CITY           SKY/WX    TMP DP  RH WIND       PRES   REMARKS
WILLISTON      FAIR      -8 -14  74 SW8       30.29S WCI -24
MINOT          FAIR      -3 -13  62 SW9       30.27R WCI -19
DICKINSON      FAIR      -5 -14  65 SW12      30.25R WCI -23
BEACH          FAIR      -4 -11  71 CALM      30.28R
CROSBY         FAIR      -9 -15  77 SW13      30.25R WCI -30
TIOGA          FAIR     -11 -17  77 SW12      30.25R WCI -31
WATFORD CITY   FAIR     -11 -18  70 CALM      30.29S
BISMARCK       FAIR     -10 -16  74 SW3       30.38R
GRAND FORKS    FAIR      -3 -10  72 SW8       30.39R WCI -18
FARGO          FAIR      -4 -11  72 S12       30.44R WCI -22
BUFFALO SD       N/A     -5 -14  65 SW5       30.19S
RAPID CITY     FAIR     -14 -17  87 NW5       30.27F
$$

REGIONAL REPORTS...WYOMING/IDAHO/WASHINGTON

CITY           SKY/WX    TMP DP  RH WIND       PRES   REMARKS
GILLETTE       FAIR      -5 -13  68 VRB5      30.14S
SHERIDAN       FAIR     -18 -24  74 CALM      30.13F
BUFFALO WY     FAIR       0 -12  57 SW7       30.07S WCI -13
CODY           FAIR      -8 -12  83 CALM      30.07S
YELLOWSTONE LA   N/A    -19 -24  77 W3        29.95R
IDAHO FALLS    FAIR       9   4  80 NW5       30.12R
SALMON         CLOUDY    13   6  74 CALM      30.12S
BOISE          FAIR      23   4  44 SE10      30.12F WCI  12
SPOKANE        FAIR       5   4  95 N5        30.23R
$$

REGIONAL REPORTS...ALBERTA

CITY           SKY/WX    TMP DP  RH WIND       PRES   REMARKS
$$

REGIONAL REPORTS...SASKATCHEWAN

CITY           SKY/WX    TMP DP  RH WIND       PRES   REMARKS
$$



USA.gov is the U.S. government's official web portal to all federal, state and local government web resources and services.